User: anonymous   Login
Location: La Comballaz
(46.3780°N, 7.0817°E)
Time: 12:56:40
(UTC+00:00)
Language:

AO-85 - Orbit

View from above orbital plane
View from above orbital plane
View from above satellite
View from above satellite

Ground track
Ground track

The orbit data is extracted from the following two-line orbital elements,

1 40967U 15058D   22335.47202270  .00001063  00000-0  13229-3 0  5484
2 40967  64.7757 283.4829 0172852 144.4243 216.8580 14.78188152 85342
Epoch (UTC): 01 December 2022 11:19:42
Eccentricity: 0.0172852
inclination: 64.7757°
perigee height: 514 km
apogee height: 756 km
right ascension of ascending node: 283.4829°
argument of perigee: 144.4243°
revolutions per day: 14.78188152
mean anomaly at epoch: 216.8580°
orbit number at epoch: 8534

The dashed part of the orbit path shows where the satellite is in the earth's shadow,  

DLR